Weather Roundup
Issued by NWS

Home | Current Version | Previous Version | Text Only | Print | Product List | Glossary On
Versions: 1 2 3 4 5 6 7 8 9 10 11 12 13 14 15 16 17 18 19 20 21 22 23 24 25 26 27 28 29 30 31 32 33 34 35 36 37 38 39 40 41 42 43 44 45 46 47 48 49 50
000
NZUS93 KARX 220310
HRRWXR

CURRENT HOURLY OBSERVATIONS ACROSS
MUCH OF THE UPPER MISSISSIPPI VALLEY
NATIONAL WEATHER SERVICE LA CROSSE WI
1000 PM CDT MON AUG 21 2017


...SOUTHEAST MINNESOTA...


CITY           SKY/WX    TMP DP  RH WIND       PRES   REMARKS
ROCHESTER      CLOUDY    64  63  96 W8        29.92F
ROCHESTER/MAYO CLOUDY    65  63  91 W6        29.91F
WINONA         CLOUDY    70  64  83 CALM      29.89F
AUSTIN         CLOUDY    64  63  94 W7        29.93R
ALBERT LEA     CLOUDY    66  66 100 W6        29.94R
DODGE CENTER   CLOUDY    64  63  94 W10       29.92S
PRESTON        CLOUDY    63  61  93 NW7       29.91R
OWATONNA       CLOUDY    64  63  94 SW7       29.92S
FARIBAULT      MOCLDY    66  63  88 SW8       29.90F
$$

...ELSEWHERE IN MINNESOTA...


CITY           SKY/WX    TMP DP  RH WIND       PRES   REMARKS
MINNEAPOLIS    CLOUDY    69  63  81 W12       29.86S
INTNL FALLS    FOG       51  50  96 CALM      29.87  VSB 1/4
DULUTH         TSTM      58  58 100 VRB3      29.83R FOG
RED WING       CLOUDY    66  63  88 SW5       29.86F
REDWOOD FALLS  CLOUDY    67  63  87 W9        29.92S
MANKATO        MOCLDY    67  63  87 W13       29.91F
WORTHINGTON    MOCLDY    64  62  93 W8        29.98R
FAIRMONT       NOT AVBL
$$

...SOUTHWEST WISCONSIN...


CITY           SKY/WX    TMP DP  RH WIND       PRES   REMARKS
LA CROSSE      CLOUDY    69  65  86 NW9       29.88R
PRAIRIE DU CHI CLOUDY    68  64  88 S8        29.85R
BOSCOBEL       CLOUDY    70  66  87 SW6       29.84F
LONE ROCK      CLOUDY    71  68  90 SE9       29.81F
PLATTEVILLE    CLOUDY    70  70 100 SE10      29.85F
FORT MC COY    CLOUDY    64  63  96 NW5       29.89R
CAMP DOUGLAS   CLOUDY    66  65  97 NW5       29.86R
MAUSTON-NEW LI CLOUDY    68  66  94 NW7       29.84R
VIROQUA        FAIR      64  64 100 CALM      29.87R
WIS DELLS      LGT RAIN  70  65  85 S16       29.81F
$$

...ELSEWHERE IN WISCONSIN...


CITY           SKY/WX    TMP DP  RH WIND       PRES   REMARKS
MILWAUKEE      CLOUDY    76  69  79 SW10      29.90F
MADISON        CLOUDY    74  68  81 S10       29.88F
GREEN BAY      CLOUDY    73  71  93 S5        29.83F
EAU CLAIRE     CLOUDY    68  63  84 S3        29.87R
BLACK RVR FLS  FAIR      66  66 100 CALM      29.89R
MEDFORD        CLOUDY    66  64  92 SW6       29.88R
WAUSAU         MOCLDY    68  63  84 W15G21    29.86R
WIS RAPIDS     CLOUDY    68  66  93 NW15      29.89R
MARSHFIELD     MOCLDY    66  63  90 W6        29.88R
RICE LAKE      CLOUDY    65  63  92 S6        29.87R
$$

...NORTHEAST IOWA...


CITY           SKY/WX    TMP DP  RH WIND       PRES   REMARKS
WATERLOO       PTCLDY    63  62  97 SW8       29.91R
DUBUQUE        CLOUDY    69  68  96 CALM      29.90F
DECORAH        CLOUDY    64  63  94 CALM      29.87R
MASON CITY     NOT AVBL
CHARLES CITY   PTCLDY    64  64 100 SW6       29.91R
OELWEIN        CLOUDY    64  63  94 SW7       29.90R
$$

...ELSEWHERE IN IOWA...


CITY           SKY/WX    TMP DP  RH WIND       PRES   REMARKS
DES MOINES     LGT RAIN  67  65  93 NW9       29.98R
IOWA CITY      CLOUDY    70  68  93 S7        29.91F
FORT DODGE     CLOUDY    64  61  88 S8        29.94F
MARSHALLTOWN   CLOUDY    65  65 100 W6        29.94R
CEDAR RAPIDS   CLOUDY    66  66 100 S3        29.89F
$$

...NORTHERN ILLINOIS...


CITY           SKY/WX    TMP DP  RH WIND       PRES   REMARKS
CHICAGO-OHARE  CLOUDY    77  67  71 SW8       29.93F
CHICAGO-MIDWAY CLOUDY    78  71  79 S8        29.94F
MOLINE         CLOUDY    75  71  87 S8        29.94F
ROCKFORD       CLOUDY    73  70  90 SW8       29.96R
PEORIA         CLOUDY    76  74  93 SW5       29.97S
$$

NOTE: "FAIR" INDICATES FEW OR NO CLOUDS BELOW 12,000 FEET WITH NO
SIGNIFICANT WEATHER AND/OR OBSTRUCTIONS TO VISIBILITY. WIND
SPEEDS ARE IN MILES-PER-HOUR.




USA.gov is the U.S. government's official web portal to all federal, state and local government web resources and services.